Voltar ao catálogo

LYRA-1

AtivoCiênciaSSO
NORAD 62664·PAYLOAD·🇦🇺 Australia

Lançado Jan 14, 2025 de Vandenberg Space Force Base

Loading…

Próximas Passagens (próximas 24 horas)

TLE

AtualizadoSource: Space-Track

Época: Sep 14, 2026, 15:01 UTC

1 62664U 25009BH  26257.62570722  .00007546  00000-0  35101-3 0  9998
2 62664  97.3905 330.3870 0007441 234.1434 125.9110 15.20211974 92002

Acompanhe LYRA-1 em tempo real com AllMySat

Download on the App Store